[[{"header":{"parameterUnit":"m.s-1","parameterCategory":1,"la1":30.2991,"la2":30.254,"lo1":-89.0895,"lo2":-89.0444,"dy":0.0017,"dx":0.0017,"nx":28,"ny":28,"refTime":"2024-07-26T21:00:00:Z","depth":0,"parameterNumber":2,"parameterNumberName":"U-component_of_WINDS"},"data":[0,0,0,0,0,0,0,0,0,0,0,0,0,0,0,0,0,0,0,0,0,0,0,0,0,0,0,0,0,0,0,0,0,0,0,0,0,0,0,0,0,0,0,0,0,0,0,0,0,0,0,0,0,0,0,0,0,0,1.5383,1.5384,0,1.5471,1.5472,1.5473,1.5515,1.5515,1.5515,1.5515,1.5612,1.5614,1.5617,0,0,0,0,0,0,0,0,0,0,0,0,0,1.5255,1.5257,1.5383,1.5384,1.5385,1.5471,1.5472,1.5474,1.5515,1.5515,1.5515,1.5515,1.5611,1.5614,1.5617,0,0,0,0,0,0,0,0,0,0,0,0,0,1.5324,1.5258,1.5382,1.5416,1.542,1.5471,1.5472,1.5474,1.5516,1.5515,1.5515,1.5515,1.561,1.5614,1.5617,1.5643,0,0,1.5629,1.5631,0,0,0,0,0,0,0,0,1.532,1.5328,1.541,1.5414,1.5418,1.5482,1.5463,1.5531,1.5516,1.5479,1.5515,1.5515,1.5569,1.5576,1.5593,1.5648,1.5652,1.563,1.5632,1.5634,1.5635,0,0,0,0,0,0,0,1.5315,1.5325,1.5418,1.5411,1.5416,1.5428,1.5438,1.5476,1.5524,1.5483,1.5486,1.5495,1.5571,1.5589,1.5596,1.5653,1.563,1.5633,1.5636,1.5637,1.5734,1.5734,0,0,0,0,0,0,1.5304,1.532,1.5415,1.5421,1.5368,1.5431,1.5441,1.5462,1.5523,1.5533,1.5495,1.5497,1.5583,1.5591,1.5599,1.5634,1.5634,1.5637,1.564,1.5734,1.5734,1.5734,0,0,0,0,0,0,1.5301,1.5312,1.5411,1.5371,1.5385,1.5433,1.5455,1.5464,1.5482,1.5533,1.5542,1.5505,1.5583,1.5594,1.5632,1.5638,1.5639,1.5643,1.5734,1.5734,1.5734,1.5703,0,0,0,0,0,0,1.5297,1.5311,1.532,1.5371,1.5387,1.5441,1.5456,1.5465,1.5488,1.5491,1.5544,1.5553,1.5584,1.5626,1.5636,1.5643,1.5646,1.5733,1.5734,1.5734,1.5703,1.5702,1.5701,0,0,0,0,0,1.5292,1.5308,1.532,1.5331,1.5399,1.5441,1.545,1.5483,1.5488,1.5498,1.5531,1.5551,1.5635,1.5629,1.5641,1.565,1.5733,1.5734,1.5734,1.5704,1.5702,1.5701,0,0,0,0,0,0,1.5258,1.5316,1.5329,1.5362,1.5396,1.5448,1.5462,1.548,1.5515,1.5517,1.5558,1.557,1.5604,1.5631,1.5623,1.5678,1.5686,1.5689,1.5659,1.5658,1.5657,1.565,1.5649,0,0,0,0,0,1.5254,1.5282,1.5331,1.5356,1.5372,1.5414,1.5433,1.5456,1.5493,1.5509,1.5544,1.5582,1.5617,1.5639,1.5674,1.5707,1.572,1.5719,1.5718,1.5716,1.5719,1.5739,1.5739,1.5736,1.5736,1.5736,0,0,1.5247,1.5282,1.5297,1.535,1.5379,1.5408,1.5426,1.5456,1.5478,1.5514,1.5551,1.5579,1.5623,1.5659,1.5677,1.5682,1.5722,1.5717,1.5715,1.5719,1.5739,1.5739,1.574,1.5736,1.5736,1.5736,0,0,1.5249,1.5277,1.53,1.5329,1.5372,1.5399,1.5405,1.5454,1.5473,1.5511,1.5538,1.5566,1.5625,1.5656,1.5679,1.5691,1.5711,1.5702,1.5694,1.5713,1.5714,1.5714,1.5719,1.572,1.5703,1.5703,1.5703,0,1.5235,1.5278,1.5311,1.5339,1.5362,1.5393,1.5418,1.5444,1.5497,1.5513,1.5518,1.5592,1.5624,1.5668,1.567,1.5688,1.5697,1.5696,1.5711,1.5711,1.5712,1.5717,1.5719,1.5702,1.5702,1.5702,1.5702,0,1.5259,1.5288,1.5302,1.535,1.5374,1.5401,1.5439,1.546,1.5481,1.5508,1.5547,1.5586,1.5629,1.5642,1.5663,1.5688,1.569,1.5702,1.5712,1.5711,1.5716,1.5718,1.57,1.57,1.5701,1.5701,0,0,1.5242,1.5307,1.5311,1.5333,1.5383,1.5407,1.5436,1.5476,1.5493,1.5529,1.5554,1.5603,1.5614,1.5641,1.5666,1.5682,1.569,1.5693,1.5694,1.5691,1.5721,1.5711,1.5713,1.5703,1.5703,1.5704,1.5717,0,1.525,1.53,1.533,1.5369,1.5397,1.5427,1.5452,1.5486,1.5512,1.5542,1.5572,1.5606,1.5618,1.5634,1.5652,1.5685,1.5696,1.5684,1.5729,1.573,1.5716,1.5716,1.5706,1.5717,1.572,1.572,1.572,0,1.5267,1.5299,1.534,1.5386,1.5399,1.542,1.546,1.5487,1.5526,1.5545,1.5573,1.5598,1.563,1.5636,1.5682,1.5673,1.5693,1.5712,1.5714,1.572,1.5725,1.5722,1.5721,1.5723,1.5724,1.5724,1.5723,0,1.5251,1.5305,1.5336,1.5354,1.5409,1.5423,1.5447,1.5486,1.5508,1.5543,1.5558,1.5597,1.5619,1.565,1.5685,1.5686,1.5727,1.5736,1.5745,1.5744,1.5753,1.5752,1.5755,1.5765,1.5765,1.5765,1.5764,0,1.5257,1.5281,1.5329,1.5349,1.5376,1.5412,1.5439,1.5465,1.55,1.5526,1.5555,1.5579,1.5624,1.5654,1.5682,1.5716,1.5726,1.5742,1.575,1.574,1.5738,1.5754,1.5754,1.5765,1.5765,1.5765,1.5765,0,1.5244,1.5277,1.5313,1.5361,1.5374,1.5392,1.5434,1.5455,1.5482,1.5515,1.5525,1.5569,1.5606,1.5643,1.5694,1.5713,1.5746,1.5756,1.5732,1.5737,1.5743,1.5742,1.5757,1.5761,1.5767,1.5767,1.5767,0,1.5246,1.5265,1.5314,1.5333,1.5355,1.5385,1.5407,1.5443,1.5466,1.5511,1.5527,1.5565,1.5598,1.5656,1.5694,1.5733,1.5744,1.5747,1.575,1.574,1.5744,1.5743,1.5745,1.5745,1.5745,1.5745,1.5745,0,1.5246,1.5261,1.5292,1.5328,1.5353,1.5384,1.5415,1.543,1.5472,1.5496,1.5533,1.5558,1.5609,1.5647,1.569,1.5717,1.5738,1.5743,1.5747,1.5738,1.5723,1.5731,1.5729,1.5743,1.5743,1.5743,1.5743,1.5743,1.5241,1.5259,1.5296,1.5329,1.5356,1.5385,1.5407,1.5436,1.5467,1.551,1.553,1.5567,1.5607,1.5666,1.5692,1.5723,1.5729,1.5735,1.5736,1.5737,1.5735,1.5718,1.5731,1.5731,1.5731,1.5731,1.5731,0,1.5243,1.5268,1.5298,1.534,1.5367,1.5382,1.5418,1.544,1.5471,1.5505,1.5536,1.5579,1.5617,1.5657,1.5697,1.5714,1.5724,1.5723,1.5722,1.5728,1.5727,1.572,1.5713,1.5713,1.5713,1.5713,1.5713,1.5713,1.5247,1.5278,1.5298,1.5343,1.5369,1.5404,1.5423,1.5451,1.5478,1.5524,1.5554,1.5579,1.5616,1.5659,1.5694,1.5705,1.5719,1.5715,1.5728,1.5727,1.5728,1.573,1.5723,1.5717,1.5717,1.5727,1.5727,1.5727]},{"header":{"parameterUnit":"m.s-1","parameterCategory":1,"la1":30.2991,"la2":30.254,"lo1":-89.0895,"lo2":-89.0444,"dy":0.0017,"dx":0.0017,"nx":28,"ny":28,"refTime":"2024-07-26T21:00:00:Z","depth":0,"parameterNumber":3,"parameterNumberName":"V-component_of_WINDS"},"data":[0,0,0,0,0,0,0,0,0,0,0,0,0,0,0,0,0,0,0,0,0,0,0,0,0,0,0,0,0,0,0,0,0,0,0,0,0,0,0,0,0,0,0,0,0,0,0,0,0,0,0,0,0,0,0,0,0,0,2.8591,2.8591,0,2.8611,2.8611,2.8611,2.8638,2.8638,2.8639,2.8639,2.8657,2.8657,2.8657,0,0,0,0,0,0,0,0,0,0,0,0,0,2.8575,2.8575,2.8591,2.8591,2.8592,2.861,2.8611,2.8611,2.8638,2.8639,2.8639,2.864,2.8657,2.8657,2.8657,0,0,0,0,0,0,0,0,0,0,0,0,0,2.8587,2.8575,2.8591,2.8607,2.8609,2.861,2.8611,2.8611,2.8638,2.8639,2.8639,2.864,2.8657,2.8657,2.8657,2.8644,0,0,2.8657,2.8657,0,0,0,0,0,0,0,0,2.8586,2.8587,2.8605,2.8606,2.8608,2.8623,2.8611,2.8622,2.8638,2.8627,2.8639,2.864,2.8645,2.8646,2.8648,2.8644,2.8645,2.8657,2.8657,2.8657,2.8657,0,0,0,0,0,0,0,2.8585,2.8586,2.8599,2.8605,2.8607,2.8613,2.8615,2.8614,2.8632,2.8628,2.863,2.8632,2.8646,2.8648,2.8649,2.8645,2.8657,2.8657,2.8657,2.8657,2.863,2.8629,0,0,0,0,0,0,2.8582,2.8586,2.8598,2.8599,2.8599,2.8613,2.8615,2.8617,2.8632,2.8635,2.8631,2.8633,2.8648,2.8649,2.8649,2.8633,2.8657,2.8657,2.8658,2.863,2.863,2.8629,0,0,0,0,0,0,2.8582,2.8583,2.8597,2.8593,2.8595,2.8612,2.8614,2.8617,2.8619,2.8634,2.8637,2.863,2.8648,2.8649,2.8645,2.8634,2.8658,2.8658,2.8631,2.863,2.8629,2.8601,0,0,0,0,0,0,2.8581,2.8583,2.8578,2.8593,2.8595,2.8593,2.8613,2.8617,2.862,2.8622,2.8634,2.8637,2.8649,2.8644,2.8645,2.8635,2.8658,2.8632,2.8631,2.8629,2.8603,2.8599,2.8596,0,0,0,0,0,2.858,2.857,2.8578,2.8579,2.8591,2.8592,2.8594,2.8608,2.8619,2.8614,2.8623,2.8636,2.8635,2.8644,2.8644,2.8634,2.8633,2.8631,2.863,2.8604,2.86,2.8596,0,0,0,0,0,0,2.8553,2.8572,2.8581,2.8575,2.8582,2.8597,2.8591,2.8603,2.8607,2.8609,2.8626,2.8629,2.8621,2.8627,2.8636,2.8621,2.8636,2.8634,2.8617,2.8612,2.8609,2.8607,2.8658,0,0,0,0,0,2.8546,2.8547,2.8563,2.8556,2.8559,2.8574,2.8576,2.8586,2.8594,2.8597,2.8606,2.8612,2.8613,2.8613,2.8615,2.8604,2.8606,2.8597,2.8594,2.8591,2.8589,2.8582,2.8577,2.8623,2.8623,2.8623,0,0,2.8532,2.8543,2.8542,2.8551,2.8557,2.8556,2.8577,2.8575,2.8574,2.8596,2.8592,2.8599,2.8607,2.8599,2.8595,2.8603,2.8577,2.8589,2.8586,2.8586,2.8579,2.8575,2.8571,2.8622,2.8622,2.8622,0,0,2.8506,2.8515,2.8509,2.8515,2.8525,2.8535,2.8534,2.8547,2.8552,2.8548,2.8564,2.8563,2.8565,2.857,2.8572,2.8547,2.8558,2.8547,2.8527,2.852,2.8517,2.8514,2.8503,2.8499,2.8545,2.8545,2.8545,0,2.8487,2.8487,2.8504,2.8501,2.8504,2.8524,2.8518,2.8523,2.8532,2.8533,2.8542,2.8544,2.8551,2.8543,2.8537,2.8539,2.8536,2.8545,2.8516,2.8513,2.851,2.85,2.8496,2.8543,2.8543,2.8544,2.8544,0,2.8463,2.8462,2.8456,2.8465,2.8467,2.8463,2.8478,2.8478,2.8488,2.8497,2.8492,2.8501,2.8504,2.8504,2.8514,2.8497,2.8501,2.8513,2.8529,2.8504,2.8495,2.8491,2.8541,2.8542,2.8542,2.8542,0,0,2.8419,2.8437,2.8435,2.8438,2.845,2.845,2.8446,2.8449,2.8448,2.8454,2.845,2.8451,2.8461,2.8464,2.8475,2.8469,2.8446,2.8481,2.8481,2.8473,2.8426,2.8416,2.8411,2.8454,2.8454,2.8453,2.8425,0,2.8394,2.8388,2.8403,2.8393,2.8392,2.8411,2.8407,2.8413,2.8421,2.8421,2.843,2.843,2.8445,2.8446,2.8441,2.845,2.8436,2.8452,2.8449,2.8448,2.8445,2.8407,2.8396,2.8369,2.8421,2.8421,2.842,0,2.8364,2.8368,2.8358,2.8369,2.837,2.8366,2.837,2.837,2.8377,2.8383,2.8386,2.8398,2.8394,2.841,2.8403,2.8413,2.8412,2.8416,2.8416,2.8415,2.8432,2.8403,2.8361,2.8356,2.8415,2.8415,2.8416,0,2.8331,2.8334,2.8328,2.8331,2.8345,2.8341,2.8347,2.8355,2.8356,2.8359,2.8359,2.8362,2.8363,2.8364,2.8376,2.8387,2.8367,2.8385,2.8371,2.837,2.8365,2.8365,2.832,2.8367,2.8367,2.8367,2.8367,0,2.83,2.8293,2.8314,2.831,2.8302,2.8318,2.831,2.8317,2.8324,2.832,2.8338,2.8334,2.8352,2.835,2.836,2.8351,2.8352,2.8356,2.8358,2.8353,2.8353,2.8352,2.8354,2.8366,2.8366,2.8366,2.8367,0,2.8262,2.8276,2.827,2.8283,2.8287,2.828,2.8291,2.8287,2.8296,2.8292,2.8292,2.8306,2.8305,2.8318,2.8319,2.8326,2.8312,2.8319,2.831,2.8311,2.8296,2.8296,2.8248,2.8242,2.8294,2.8294,2.8293,0,2.8241,2.8235,2.8248,2.8247,2.8252,2.8251,2.8252,2.8268,2.8268,2.8275,2.827,2.8271,2.8271,2.8268,2.8278,2.8279,2.8284,2.8267,2.8284,2.8279,2.8282,2.8281,2.828,2.8263,2.8263,2.8262,2.8262,0,2.8201,2.8208,2.8209,2.8212,2.8212,2.8216,2.822,2.8218,2.8235,2.8234,2.8233,2.8234,2.8235,2.8234,2.8237,2.8242,2.8254,2.8256,2.8253,2.8247,2.8241,2.8243,2.8298,2.8257,2.8257,2.8258,2.8258,2.8258,2.8169,2.8165,2.8173,2.8173,2.8178,2.8181,2.8178,2.8187,2.8186,2.8189,2.8198,2.8195,2.8201,2.8206,2.8209,2.8206,2.8214,2.821,2.8208,2.8206,2.8203,2.8243,2.8207,2.8207,2.8207,2.8207,2.8207,0,2.8129,2.8135,2.8135,2.814,2.814,2.8152,2.8157,2.8156,2.8153,2.8158,2.8159,2.8157,2.8156,2.8166,2.8166,2.8162,2.8167,2.8161,2.8161,2.8161,2.8197,2.8199,2.8157,2.8157,2.8157,2.8157,2.8157,2.8157,2.8107,2.81,2.8108,2.8103,2.8109,2.8106,2.8108,2.811,2.8114,2.8112,2.8111,2.8118,2.8124,2.8125,2.8124,2.8127,2.8126,2.8117,2.8122,2.8154,2.8159,2.8164,2.8166,2.8117,2.8117,2.8087,2.8086,2.8086]}]]